Location: Apollinopolis Magna
(24.9792°N, 32.8772°E)
Time: 18:24:29
(UTC+00:00)

Cosmos 968 Rocket - Pass Details

Date: 02 March 2021
Orbit: 740 x 771 km, 74.0° (Epoch: 09 April)

Event Time Altitude Azimuth Distance (km) Brightness Sun altitude
Rises 16:54:59 0° 349° (NNW) 3,241 6.9 -15.2°
Reaches altitude 10° 16:57:24 10° 352° (N) 2,313 6.1 -15.8°
Maximum altitude 17:02:37 67° 74° (ENE) 833 3.4 -17.0°
Drops below altitude 10° 17:07:49 10° 157° (SSE) 2,301 5.7 -18.1°
Sets 17:10:12 0° 160° (SSE) 3,222 6.5 -18.7°
